This demonstration page uses our WeatherBlox Daily Observations layout. Learn more.

Left ArrowRight Arrow

39.51506, -84.39828

Hourly Observations for February 22, 2020

Temp ( °F °C ) Dew Point ( °F °C ) Humidity (%) Winds ( mph kmh ) Pressure ( in mb ) Visibility ( mi km ) Precip ( " mm )
12:15 am 00:15 Clear 24 -4.7 12 -11.3 60 60 SSW 5 7 30.51 1033 10 16.0934 0 0
12:35 am 00:35 Clear 21 -6 13 -10.4 71 71 SW 5 7 30.5 1033 10 16.0934 0 0
12:55 am 00:55 Clear 23 -4.8 14 -10 67 67 SSW 5 7 30.49 1032 10 16.0934 0 0
1:15 am 01:15 Clear 22 -5.7 14 -9.9 73 73 Calm 30.49 1033 10 16.0934 0 0
1:35 am 01:35 Clear 23 -4.9 15 -9.3 72 72 WSW 5 7 30.5 1033 10 16.0934 0 0
1:55 am 01:55 Clear 22 -5.6 16 -9.1 77 77 SW 6 9 30.49 1033 10 16.0934 0 0
2:15 am 02:15 Clear 23 -4.9 13 -10.3 66 66 SSW 5 7 30.49 1032 10 16.0934 0 0
2:35 am 02:35 Clear 23 -4.8 14 -10.2 66 66 SW 3 6 30.48 1032 10 16.0934 0 0
2:55 am 02:55 Clear 23 -4.9 14 -10 68 68 SW 5 7 30.48 1032 10 16.0934 0 0
3:15 am 03:15 Clear 21 -5.9 14 -9.9 74 74 Calm 30.48 1032 10 16.0934 0 0
3:35 am 03:35 Clear 18 -7.6 13 -10.3 81 81 Calm 30.49 1032 10 16.0934 0 0
3:55 am 03:55 Clear 18 -7.6 15 -9.3 88 88 Calm 30.49 1032 10 16.0934 0 0
4:15 am 04:15 Clear 19 -7.1 15 -9.7 82 82 Calm 30.49 1032 10 16.0934 0 0
4:35 am 04:35 Clear 17 -8.2 13 -10.4 84 84 SW 6 9 30.49 1032 10 16.0934 0 0
4:55 am 04:55 Clear 16 -8.7 13 -10.8 85 85 SW 5 7 30.49 1033 10 16.0934 0 0
5:15 am 05:15 Clear 19 -7.3 15 -9.6 84 84 SW 5 7 30.49 1032 10 16.0934 0 0
5:35 am 05:35 Clear 19 -7.3 14 -10 81 81 WSW 5 7 30.49 1032 10 16.0934 0 0
5:55 am 05:55 Clear 19 -7.5 13 -10.5 79 79 SW 5 7 30.49 1032 10 16.0934 0 0
6:15 am 06:15 Clear 17 -8.1 14 -10.2 85 85 Calm 30.5 1033 10 16.0934 0 0
6:35 am 06:35 Clear 17 -8.5 13 -10.8 84 84 SSW 3 6 30.5 1033 10 16.0934 0 0
6:55 am 06:55 Clear 15 -9.4 12 -11.2 87 87 SW 5 7 30.5 1033 10 16.0934 0 0
7:15 am 07:15 Clear 18 -7.9 14 -10 85 85 SW 7 11 30.5 1033 10 16.0934 0 0
7:35 am 07:35 Sunny 17 -8.3 13 -10.3 86 86 SW 6 9 30.5 1033 10 16.0934 0 0
7:55 am 07:55 Sunny 19 -7.1 16 -9.1 86 86 SSW 5 7 30.5 1033 10 16.0934 0 0
8:15 am 08:15 Sunny 22 -5.7 17 -8.2 83 83 SW 5 7 30.5 1033 10 16.0934 0 0
8:35 am 08:35 Sunny 24 -4.2 18 -7.7 77 77 SSW 6 9 30.5 1033 10 16.0934 0 0
8:55 am 08:55 Sunny 26 -3.2 18 -8 70 70 SW 8 13 30.49 1033 10 16.0934 0 0
9:15 am 09:15 Sunny 28 -2.1 18 -7.6 66 66 SSW 12 19 30.49 1033 10 16.0934 0 0
9:35 am 09:35 Sunny 30 -0.9 18 -7.8 60 60 SW 13 20 30.48 1032 10 16.0934 0 0
9:55 am 09:55 Sunny 33 0.4 19 -7.5 56 56 SSW 10 17 30.47 1032 10 16.0934 0 0
10:15 am 10:15 Sunny 34 0.9 17 -8.2 51 51 SSW 10 17 30.46 1032 10 16.0934 0 0
10:35 am 10:35 Sunny 36 2 17 -8.3 47 47 SW 13 20 30.45 1031 10 16.0934 0 0
10:55 am 10:55 Sunny 37 2.6 17 -8.2 45 45 SSW 9 15 30.45 1031 10 16.0934 0 0
11:15 am 11:15 Sunny 38 3.5 17 -8.6 41 41 S 13 20 30.44 1031 10 16.0934 0 0
11:35 am 11:35 Sunny 39 4.1 17 -8.6 39 39 SSW 8 13 30.43 1031 10 16.0934 0 0
11:55 am 11:55 Sunny 41 4.8 16 -8.7 37 37 SSW 14 22 30.42 1030 10 16.0934 0 0
12:15 pm 12:15 Sunny 42 5.3 16 -8.9 35 35 SSW 13 20 30.41 1030 10 16.0934 0 0
12:35 pm 12:35 Sunny 43 6 15 -9.2 33 33 SSW 14 22 30.4 1029 10 16.0934 0 0
12:55 pm 12:55 Sunny 44 6.4 14 -9.8 31 31 SW 15 24 30.39 1029 10 16.0934 0 0
1:15 pm 13:15 Sunny 45 7.3 15 -9.2 30 30 SSW 17 28 30.37 1028 10 16.0934 0 0
1:35 pm 13:35 Sunny 46 7.7 14 -9.8 28 28 SW 13 20 30.36 1028 10 16.0934 0 0
1:55 pm 13:55 Sunny 46 7.9 14 -10.1 27 27 SW 16 26 30.34 1028 10 16.0934 0 0
2:15 pm 14:15 Sunny 47 8.1 14 -10.2 26 26 WSW 15 24 30.34 1028 10 16.0934 0 0
2:35 pm 14:35 Sunny 48 8.9 15 -9.5 26 26 SSW 15 24 30.33 1027 10 16.0934 0 0
2:55 pm 14:55 Sunny 48 8.8 14 -9.9 26 26 SSW 13 20 30.32 1027 10 16.0934 0 0
3:10 pm 15:10 Sunny 48 9.1 14 -10.1 25 25 SSW 16 26 30.32 1027 10 16.0934 0 0
3:35 pm 15:35 Sunny 49 9.3 14 -10 25 25 SSW 16 26 30.31 1026 10 16.0934 0 0
3:55 pm 15:55 Sunny 49 9.5 14 -9.8 25 25 SW 15 24 30.31 1026 10 16.0934 0 0
4:15 pm 16:15 Sunny 49 9.3 14 -10 25 25 SSW 13 20 30.3 1026 10 16.0934 0 0
4:35 pm 16:35 Sunny 49 9.5 14 -10.1 24 24 SSW 14 22 30.29 1026 10 16.0934 0 0
4:55 pm 16:55 Sunny 49 9.3 14 -9.8 25 25 SSW 13 20 30.29 1026 10 16.0934 0 0
5:15 pm 17:15 Sunny 48 9 14 -10.2 25 25 SW 13 20 30.29 1026 10 16.0934 0 0
5:35 pm 17:35 Sunny 47 8.5 13 -10.5 25 25 SW 12 19 30.28 1025 10 16.0934 0 0
5:55 pm 17:55 Sunny 45 7.4 14 -10 28 28 SW 9 15 30.29 1026 10 16.0934 0 0
6:15 pm 18:15 Sunny 42 5.7 14 -9.8 32 32 SW 9 15 30.28 1025 10 16.0934 0 0
6:35 pm 18:35 Clear 41 5 14 -10 33 33 SSW 7 11 30.28 1025 10 16.0934 0 0
6:55 pm 18:55 Clear 40 4.7 13 -10.3 33 33 SSW 6 9 30.29 1026 10 16.0934 0 0
7:15 pm 19:15 Clear 35 1.9 15 -9.3 44 44 SW 6 9 30.3 1026 10 16.0934 0 0
7:35 pm 19:35 Clear 31 -0.6 17 -8.6 55 55 Calm 30.31 1026 10 16.0934 0 0
7:55 pm 19:55 Clear 31 -0.4 20 -6.4 64 64 Calm 30.31 1026 10 16.0934 0 0
8:15 pm 20:15 Clear 29 -1.8 18 -7.6 65 65 Calm 30.3 1026 10 16.0934 0 0
8:35 pm 20:35 Clear 30 -1.2 20 -6.9 66 66 Calm 30.3 1026 10 16.0934 0 0
8:55 pm 20:55 Clear 29 -1.4 20 -6.7 68 68 Calm 30.3 1026 10 16.0934 0 0
9:15 pm 21:15 Clear 27 -2.8 19 -7.3 71 71 Calm 30.31 1027 10 16.0934 0 0
9:35 pm 21:35 Clear 28 -2.5 19 -7.5 69 69 Calm 30.31 1026 10 16.0934 0 0
9:55 pm 21:55 Clear 27 -2.6 20 -6.9 73 73 Calm 30.31 1026 10 16.0934 0 0
10:15 pm 22:15 Clear 27 -2.6 21 -5.9 78 78 Calm 30.31 1026 10 16.0934 0 0
10:35 pm 22:35 Clear 27 -2.9 21 -6.1 79 79 Calm 30.3 1026 10 16.0934 0 0
10:55 pm 22:55 Clear 26 -3.4 20 -6.6 79 79 Calm 30.3 1026 10 16.0934 0 0
11:15 pm 23:15 Clear 26 -3.6 20 -6.9 78 78 Calm 30.31 1026 10 16.0934 0 0
11:35 pm 23:35 Clear 27 -3 22 -5.7 82 82 Calm 30.29 1026 10 16.0934 0 0
11:55 pm 23:55 Clear 26 -3.1 20 -6.6 77 77 Calm 30.29 1026 10 16.0934 0 0

Powered by AerisWeather